Atmospheric History
08/22/2019 22:42  to  8/23/2019 22:42
Change End Date:
To complete the export process:
1) Select all of the data below
2) Copy the data to the clipboard
3) Open a word processor such as Notepad
4) Paste the data into the word processor
5) Save the file

Date/Time (MDT), AirTemp, RH, Dewpoint ,AvgWindSpeed, GustWindSpeed, WindDirection, PrecipType, PrecipIntensity, PrecipAccumulation, PrecipRate ,Visibility
08/23/2019 22:41, 68, 64, 56 ,2, 2, E, None, None, ,   ,
08/23/2019 22:37, 68, 65, 56 ,1, 1, E, None, None, ,   ,
08/23/2019 22:31, 67, 68, 56 ,1, 2, N, None, None, ,   ,
08/23/2019 22:22, 68, 63, 56 ,2, 3, NE, None, None, ,   ,
08/23/2019 22:20, 68, 64, 56 ,2, 4, NE, None, None, ,   ,
08/23/2019 22:10, 68, 65, 56 ,4, 4, NE, None, None, ,   ,
08/23/2019 22:07, 68, 65, 56 ,4, 4, NE, None, None, ,   ,
08/23/2019 22:00, 67, 66, 56 ,4, 4, NE, None, None, ,   ,
08/23/2019 21:52, 67, 67, 56 ,4, 4, NE, None, None, ,   ,
08/23/2019 21:50, 67, 67, 56 ,4, 4, NE, None, None, ,   ,
08/23/2019 21:40, 67, 68, 56 ,4, 4, E, None, None, ,   ,
08/23/2019 21:37, 67, 68, 56 ,4, 4, NE, None, None, ,   ,
08/23/2019 21:30, 67, 68, 56 ,4, 4, NE, None, None, ,   ,
08/23/2019 21:22, 67, 69, 56 ,4, 4, NE, None, None, ,   ,
08/23/2019 21:20, 67, 70, 56 ,3, 4, NE, None, None, ,   ,
08/23/2019 21:10, 67, 69, 57 ,4, 6, E, None, None, ,   ,
08/23/2019 21:07, 67, 69, 57 ,4, 6, E, None, None, ,   ,
08/23/2019 21:00, 67, 70, 57 ,5, 6, E, None, None, ,   ,
08/23/2019 20:52, 66, 74, 57 ,4, 6, E, None, None, ,   ,
08/23/2019 20:50, 66, 73, 58 ,4, 7, E, None, None, ,   ,
08/23/2019 20:40, 68, 70, 58 ,6, 7, E, None, None, ,   ,
08/23/2019 20:37, 67, 71, 58 ,6, 7, E, None, None, ,   ,
08/23/2019 20:30, 67, 73, 58 ,4, 6, E, None, None, ,   ,
08/23/2019 20:22, 67, 73, 58 ,4, 6, E, None, None, ,   ,
08/23/2019 20:20, 67, 72, 58 ,4, 7, E, None, None, ,   ,
08/23/2019 20:10, 69, 67, 57 ,7, 7, SE, None, None, ,   ,
08/23/2019 20:07, 69, 67, 57 ,6, 6, SE, None, None, ,   ,
08/23/2019 20:00, 69, 68, 58 ,6, 6, SE, None, None, ,   ,
08/23/2019 19:52, 69, 68, 58 ,4, 5, SE, None, None, ,   ,
08/23/2019 19:50, 69, 69, 59 ,4, 5, SE, None, None, ,   ,
08/23/2019 19:40, 71, 65, 58 ,4, 6, S, None, None, ,   ,
08/23/2019 19:37, 71, 63, 58 ,4, 6, S, None, None, ,   ,
08/23/2019 19:30, 72, 62, 58 ,4, 7, SE, None, None, ,   ,
08/23/2019 19:22, 73, 58, 57 ,6, 7, SE, None, None, ,   ,
08/23/2019 19:20, 73, 58, 57 ,4, 7, S, None, None, ,   ,
08/23/2019 19:10, 73, 56, 57 ,2, 2, S, None, None, ,   ,
08/23/2019 19:07, 73, 56, 57 ,2, 2, S, None, None, ,   ,
08/23/2019 19:00, 74, 54, 56 ,0, 3, SE, None, None, ,   ,
08/23/2019 18:52, 74, 54, 56 ,0, 4, SE, None, None, ,   ,
08/23/2019 18:50, 74, 54, 56 ,2, 4, SE, None, None, ,   ,
08/23/2019 18:40, 74, 55, 57 ,1, 6, N, None, None, ,   ,
08/23/2019 18:37, 74, 55, 57 ,2, 6, SW, None, None, ,   ,
08/23/2019 18:30, 74, 55, 56 ,4, 6, S, None, None, ,   ,
08/23/2019 18:22, 73, 55, 56 ,2, 7, S, None, None, ,   ,
08/23/2019 18:20, 73, 55, 56 ,4, 7, S, None, None, ,   ,
08/23/2019 18:10, 73, 56, 57 ,2, 8, E, None, None, ,   ,
08/23/2019 18:07, 74, 54, 56 ,6, 8, SE, None, None, ,   ,
08/23/2019 18:00, 74, 56, 58 ,4, 7, SW, None, None, ,   ,
08/23/2019 17:52, 74, 54, 56 ,6, 8, S, None, None, ,   ,
08/23/2019 17:50, 74, 54, 56 ,4, 8, SE, None, None, ,   ,
08/23/2019 17:39, 74, 53, 56 ,4, 7, SE, None, None, ,   ,
08/23/2019 17:37, 74, 51, 56 ,6, 7, SE, None, None, ,   ,
08/23/2019 17:29, 74, 52, 56 ,0, 4, S, None, None, ,   ,
08/23/2019 17:22, 74, 53, 56 ,1, 5, NE, None, None, ,   ,
08/23/2019 17:19, 74, 53, 56 ,3, 6, SE, None, None, ,   ,
08/23/2019 17:09, 74, 51, 55 ,3, 7, SE, None, None, ,   ,
08/23/2019 17:07, 74, 53, 56 ,4, 7, SE, None, None, ,   ,
08/23/2019 16:59, 75, 52, 56 ,1, 4, SW, None, None, ,   ,
08/23/2019 16:52, 74, 56, 58 ,3, 7, SW, None, None, ,   ,
08/23/2019 16:49, 73, 56, 57 ,3, 7, SW, None, None, ,   ,
08/23/2019 16:39, 75, 55, 58 ,4, 6, SE, None, None, ,   ,
08/23/2019 16:37, 76, 53, 58 ,2, 5, S, None, None, ,   ,
08/23/2019 16:29, 74, 56, 58 ,1, 4, S, None, None, ,   ,
08/23/2019 16:22, 73, 57, 57 ,2, 4, S, None, None, ,   ,
08/23/2019 16:19, 74, 57, 58 ,2, 4, SW, None, None, ,   ,
08/23/2019 16:09, 74, 57, 58 ,2, 4, SW, None, None, ,   ,
08/23/2019 16:07, 73, 57, 57 ,1, 4, SW, None, None, ,   ,
08/23/2019 15:59, 72, 60, 57 ,1, 6, N, None, None, ,   ,
08/23/2019 15:52, 72, 57, 56 ,2, 6, NE, None, None, ,   ,
08/23/2019 15:49, 73, 60, 58 ,2, 6, NE, None, None, ,   ,
08/23/2019 15:39, 73, 59, 57 ,4, 6, S, None, None, ,   ,
08/23/2019 15:37, 73, 57, 57 ,4, 6, S, None, None, ,   ,
08/23/2019 15:29, 73, 59, 58 ,3, 7, SW, None, None, ,   ,
08/23/2019 15:22, 71, 65, 59 ,4, 9, W, None, None, ,   ,
08/23/2019 15:19, 71, 63, 57 ,6, 9, SW, None, None, ,   ,
08/23/2019 15:09, 72, 58, 56 ,1, 7, SW, None, None, ,   ,
08/23/2019 15:07, 72, 60, 57 ,2, 7, N, None, None, ,   ,
08/23/2019 14:59, 73, 61, 58 ,2, 4, S, None, None, ,   ,
08/23/2019 14:52, 71, 60, 57 ,3, 6, NW, None, None, ,   ,
08/23/2019 14:49, 71, 62, 58 ,4, 7, W, None, None, ,   ,
08/23/2019 14:39, 73, 58, 58 ,6, 9, N, None, None, ,   ,
08/23/2019 14:37, 73, 59, 58 ,6, 9, N, None, None, ,   ,
08/23/2019 14:29, 70, 63, 57 ,4, 9, N, None, None, ,   ,
08/23/2019 14:22, 69, 68, 58 ,6, 11, NW, None, None, ,   ,
08/23/2019 14:19, 70, 64, 57 ,6, 11, N, None, None, ,   ,
08/23/2019 14:09, 71, 59, 57 ,9, 12, NW, None, None, ,   ,
08/23/2019 14:07, 71, 62, 58 ,4, 12, NW, None, None, ,   ,
08/23/2019 13:59, 71, 62, 57 ,6, 14, NW, None, None, ,   ,
08/23/2019 13:52, 71, 60, 57 ,9, 14, N, None, None, ,   ,
08/23/2019 13:49, 71, 61, 58 ,8, 11, NW, None, None, ,   ,
08/23/2019 13:39, 70, 65, 58 ,7, 11, NW, None, None, ,   ,
08/23/2019 13:37, 70, 63, 57 ,4, 9, NW, None, None, ,   ,
08/23/2019 13:28, 69, 65, 56 ,5, 9, NW, None, None, ,   ,
08/23/2019 13:22, 69, 65, 56 ,5, 8, NW, None, None, ,   ,
08/23/2019 13:18, 68, 67, 57 ,6, 9, W, None, None, ,   ,
08/23/2019 13:08, 67, 68, 57 ,7, 11, NW, None, None, ,   ,
08/23/2019 13:07, 67, 70, 57 ,7, 11, NW, None, None, ,   ,
08/23/2019 12:58, 67, 71, 58 ,7, 11, NW, None, None, ,   ,
08/23/2019 12:52, 67, 72, 57 ,7, 12, NW, None, None, ,   ,
08/23/2019 12:48, 67, 71, 57 ,7, 12, NW, None, None, ,   ,
08/23/2019 12:38, 66, 75, 58 ,9, 12, NW, None, None, ,   ,
08/23/2019 12:37, 66, 73, 57 ,9, 12, NW, None, None, ,   ,
08/23/2019 12:28, 65, 75, 57 ,10, 14, NW, None, None, ,   ,
08/23/2019 12:22, 65, 78, 58 ,9, 13, NW, None, None, ,   ,
08/23/2019 12:18, 65, 80, 59 ,10, 13, NW, None, None, ,   ,
08/23/2019 12:08, 65, 79, 59 ,11, 14, NW, None, None, ,   ,
08/23/2019 12:07, 65, 79, 59 ,11, 14, NW, None, None, ,   ,
08/23/2019 11:58, 64, 84, 60 ,9, 17, NW, None, None, ,   ,
08/23/2019 11:52, 64, 82, 59 ,12, 20, NW, None, None, ,   ,
08/23/2019 11:48, 65, 81, 59 ,14, 20, NW, None, None, ,   ,
08/23/2019 11:38, 65, 82, 59 ,18, 24, NW, None, None, ,   ,
08/23/2019 11:37, 65, 80, 59 ,18, 24, NW, None, None, ,   ,
08/23/2019 11:28, 66, 84, 61 ,17, 22, NW, None, None, ,   ,
08/23/2019 11:22, 65, 85, 61 ,17, 21, NW, None, None, ,   ,
08/23/2019 11:18, 65, 84, 60 ,17, 21, NW, None, None, ,   ,
08/23/2019 11:08, 66, 82, 60 ,14, 17, NW, None, None, ,   ,
08/23/2019 11:07, 66, 82, 60 ,14, 17, NW, None, None, ,   ,
08/23/2019 10:58, 64, 88, 61 ,10, 14, NW, None, None, ,   ,
08/23/2019 10:52, 64, 85, 60 ,12, 15, NW, None, None, ,   ,
08/23/2019 10:48, 64, 84, 59 ,12, 15, NW, None, None, ,   ,
08/23/2019 10:38, 63, 87, 59 ,9, 12, W, None, None, ,   ,
08/23/2019 10:37, 63, 87, 59 ,9, 12, NW, None, None, ,   ,
08/23/2019 10:28, 63, 88, 59 ,10, 12, NW, None, None, ,   ,
08/23/2019 10:22, 63, 87, 59 ,10, 11, W, None, None, ,   ,
08/23/2019 10:17, 64, 85, 59 ,7, 11, W, None, None, ,   ,
08/23/2019 10:07, 65, 90, 62 ,5, 7, NW, None, None, ,   ,
08/23/2019 10:07, 65, 90, 62 ,5, 7, W, None, None, ,   ,
08/23/2019 09:57, 63, 89, 59 ,4, 8, NW, None, None, ,   ,
08/23/2019 09:52, 63, 89, 60 ,6, 8, NW, None, None, ,   ,
08/23/2019 09:47, 63, 89, 60 ,4, 6, NW, None, None, ,   ,
08/23/2019 09:37, 62, 92, 60 ,5, 7, NW, None, None, ,   ,
08/23/2019 09:37, 62, 92, 60 ,5, 7, NW, None, None, ,   ,
08/23/2019 09:27, 62, 94, 60 ,6, 7, W, None, None, ,   ,
08/23/2019 09:22, 61, 95, 60 ,4, 7, NW, None, None, ,   ,
08/23/2019 09:17, 61, 95, 60 ,5, 9, NW, None, None, ,   ,
08/23/2019 09:07, 61, 96, 60 ,6, 12, NW, None, None, ,   ,
08/23/2019 09:07, 61, 96, 60 ,6, 12, NW, None, None, ,   ,
08/23/2019 08:57, 60, 97, 59 ,11, 14, NW, None, None, ,   ,
08/23/2019 08:52, 60, 97, 59 ,9, 13, NW, None, None, ,   ,
08/23/2019 08:47, 60, 97, 59 ,11, 13, NW, None, None, ,   ,
08/23/2019 08:37, 60, 97, 59 ,12, 15, NW, None, None, ,   ,
08/23/2019 08:37, 60, 97, 59 ,12, 15, NW, None, None, ,   ,
08/23/2019 08:27, 60, 98, 59 ,11, 14, NW, None, None, ,   ,
08/23/2019 08:22, 60, 98, 59 ,10, 14, NW, None, None, ,   ,
08/23/2019 08:17, 60, 98, 59 ,11, 15, N, None, None, ,   ,
08/23/2019 08:07, 60, 98, 60 ,11, 14, N, None, None, ,   ,
08/23/2019 08:07, 60, 98, 60 ,11, 14, N, None, None, ,   ,
08/23/2019 07:57, 60, 98, 60 ,10, 16, NW, None, None, ,   ,
08/23/2019 07:52, 60, 98, 59 ,11, , NW, None, None, ,   ,
08/23/2019 07:46, , ,   , , , -, Yes, , ,   ,
08/23/2019 07:37, 61, 98, 60 ,7, 11, NW, None, None, ,   ,
08/23/2019 07:35, 60, 97, 60 ,7, 11, NW, None, None, ,   ,
08/23/2019 07:25, 60, 97, 60 ,7, 10, NW, None, None, ,   ,
08/23/2019 07:22, 60, 97, 60 ,7, 10, NW, None, None, ,   ,
08/23/2019 07:15, 60, 97, 60 ,7, 9, NW, None, None, ,   ,
08/23/2019 07:07, 60, 97, 59 ,6, 7, NW, None, None, ,   ,
08/23/2019 07:05, 60, 97, 60 ,5, 7, NW, None, None, ,   ,
08/23/2019 06:55, 60, 97, 59 ,6, 9, NW, None, None, ,   ,
08/23/2019 06:52, 60, 97, 59 ,6, 9, NW, None, None, ,   ,
08/23/2019 06:45, 60, 97, 59 ,7, 10, NW, None, None, ,   ,
08/23/2019 06:37, 60, 97, 59 ,7, 10, NW, None, None, ,   ,
08/23/2019 06:35, 60, 97, 59 ,7, 9, NW, None, None, ,   ,
08/23/2019 06:25, 60, 97, 59 ,8, 10, NW, None, None, ,   ,
08/23/2019 06:22, 60, 97, 59 ,7, 9, NW, None, None, ,   ,
08/23/2019 06:15, 60, 97, 59 ,6, 10, NW, None, None, ,   ,
08/23/2019 06:07, 60, 98, 59 ,6, 10, W, None, None, ,   ,
08/23/2019 06:05, 60, 98, 59 ,6, 10, W, None, None, ,   ,
08/23/2019 05:55, 60, 98, 59 ,10, 13, W, None, None, ,   ,
08/23/2019 05:52, 59, 99, 59 ,10, 13, W, None, None, ,   ,
08/23/2019 05:45, 60, 99, 59 ,9, 12, W, None, None, ,   ,
08/23/2019 05:37, 59, 99, 59 ,9, 11, W, None, None, ,   ,
08/23/2019 05:35, 59, 99, 58 ,7, 9, W, None, None, ,   ,
08/23/2019 05:25, 59, 98, 58 ,5, 7, W, None, None, ,   ,
08/23/2019 05:22, 59, 98, 58 ,6, 7, NW, None, None, ,   ,
08/23/2019 05:15, 59, 99, 59 ,6, 7, NW, None, None, ,   ,
08/23/2019 05:07, 60, 99, 59 ,6, 9, W, None, None, ,   ,
08/23/2019 05:05, 60, 99, 59 ,7, 9, NW, None, None, ,   ,
08/23/2019 04:55, 60, 99, 60 ,7, 10, W, None, None, ,   ,
08/23/2019 04:52, 60, 99, 60 ,8, 10, W, None, None, ,   ,
08/23/2019 04:45, 59, 98, 59 ,6, 8, NW, None, None, ,   ,
08/23/2019 04:37, 59, 98, 59 ,3, 7, NW, None, None, ,   ,
08/23/2019 04:35, 59, 98, 59 ,4, 7, NW, None, None, ,   ,
08/23/2019 04:25, 59, 98, 59 ,6, 6, NW, None, None, ,   ,
08/23/2019 04:22, 59, 98, 59 ,4, 7, NW, None, None, ,   ,
08/23/2019 04:14, 59, 98, 59 ,6, 7, NW, None, None, ,   ,
08/23/2019 04:07, 60, 98, 59 ,6, 8, NW, None, None, ,   ,
08/23/2019 04:04, 60, 98, 59 ,7, 8, NW, None, None, ,   ,
08/23/2019 03:54, 60, 97, 59 ,4, 7, NW, None, None, ,   ,
08/23/2019 03:52, 60, 97, 59 ,4, 9, NW, None, None, ,   ,
08/23/2019 03:44, 60, 96, 59 ,7, 11, NW, None, None, ,   ,
08/23/2019 03:37, 61, 96, 60 ,9, 12, NW, None, None, ,   ,
08/23/2019 03:34, 61, 96, 60 ,9, 12, N, None, None, ,   ,
08/23/2019 03:24, 61, 96, 60 ,9, 10, NW, None, None, ,   ,
08/23/2019 03:22, 61, 96, 60 ,7, 11, NW, None, None, ,   ,
08/23/2019 03:14, 62, 96, 60 ,9, 13, N, None, None, ,   ,
08/23/2019 03:07, 62, 96, 60 ,11, 14, N, None, None, ,   ,
08/23/2019 03:04, 62, 95, 60 ,11, 16, N, None, None, ,   ,
08/23/2019 02:54, 61, 96, 60 ,12, 16, NE, None, None, ,   ,
08/23/2019 02:52, 61, 96, 60 ,12, 16, N, None, None, ,   ,
08/23/2019 02:44, 61, 96, 60 ,12, 17, N, None, None, ,   ,
08/23/2019 02:37, 61, 96, 60 ,13, 17, N, None, None, ,   ,
08/23/2019 02:34, 61, 96, 60 ,12, 22, N, None, None, ,   ,
08/23/2019 02:24, 61, 95, 60 ,15, 24, N, None, None, ,   ,
08/23/2019 02:22, 61, 95, 60 ,17, 22, N, None, None, ,   ,
08/23/2019 02:14, 62, 95, 60 ,18, 26, N, None, None, ,   ,
08/23/2019 02:07, 62, 96, 60 ,14, 24, N, None, None, ,   ,
08/23/2019 02:04, 62, 96, 60 ,18, 25, N, None, None, ,   ,
08/23/2019 01:54, 62, 95, 60 ,21, 29, N, None, None, ,   ,
08/23/2019 01:52, 62, 95, 60 ,22, 29, N, None, None, ,   ,
08/23/2019 01:44, 62, 96, 60 ,17, 22, N, None, None, ,   ,
08/23/2019 01:37, 62, 95, 61 ,17, 24, N, None, None, ,   ,
08/23/2019 01:34, 62, 96, 61 ,20, 24, N, None, None, ,   ,
08/23/2019 01:24, 62, 97, 61 ,17, 24, N, Yes, , ,   ,
08/23/2019 01:22, 62, 97, 61 ,19, 24, N, Yes, , ,   ,
08/23/2019 01:14, 61, 98, 61 ,19, 24, N, Yes, , ,   ,
08/23/2019 01:07, 61, 98, 61 ,16, 19, N, Yes, , ,   ,
08/23/2019 01:03, 61, 98, 61 ,14, 17, NW, Yes, , ,   ,
08/23/2019 00:53, 61, 98, 61 ,16, 21, NW, Yes, , ,   ,
08/23/2019 00:52, 61, 98, 61 ,18, 21, NW, Yes, , ,   ,
08/23/2019 00:43, 61, 98, 60 ,14, 21, NW, Yes, , ,   ,
08/23/2019 00:37, 61, 98, 60 ,16, 21, NW, Yes, , ,   ,
08/23/2019 00:33, 61, 98, 60 ,16, 19, NW, Yes, , ,   ,
08/23/2019 00:23, 61, 98, 60 ,13, 21, W, Yes, , ,   ,
08/23/2019 00:22, 61, 97, 60 ,14, 21, W, Yes, , ,   ,
08/23/2019 00:13, 61, 97, 60 ,16, 22, W, Yes, , ,   ,
08/23/2019 00:07, 61, 96, 60 ,17, 25, W, Yes, , ,   ,
08/23/2019 00:03, 61, 95, 60 ,19, 27, W, Yes, , ,   ,
08/22/2019 23:53, 62, 94, 60 ,20, 32, W, Yes, , ,   ,
08/22/2019 23:52, 62, 93, 60 ,21, 32, W, Yes, , ,   ,
08/22/2019 23:43, 62, 95, 60 ,25, 32, SW, Yes, , ,   ,
08/22/2019 23:37, 62, 96, 60 ,23, 27, SW, Yes, , ,   ,
08/22/2019 23:33, 61, 97, 60 ,21, 31, W, Yes, , ,   ,
08/22/2019 23:23, 61, 97, 60 ,30, 41, NW, None, None, ,   ,
08/22/2019 23:22, 61, 97, 60 ,31, 41, NW, None, None, ,   ,
08/22/2019 23:13, 61, 97, 60 ,32, 39, NW, None, None, ,   ,
08/22/2019 23:07, 61, 98, 60 ,27, 34, NW, None, None, ,   ,
08/22/2019 23:03, 61, 98, 60 ,25, 34, NW, Yes, , ,   ,
08/22/2019 22:53, 61, 99, 60 ,27, 35, NW, Yes, , ,   ,
08/22/2019 22:52, 61, 99, 60 ,28, 36, NW, Yes, , ,   ,
08/22/2019 22:43, 60, 98, 60 ,31, 42, NW, Yes, , ,   ,
Change End Date:

Copyright © 1998-2015 Vaisala, Inc.
All Rights Reserved
Send comments about the data to:
SCAN Web ® is a registered trademark of Vaisala, Inc.
SCAN Web Version 6.0